GFSNE_sfc_thetae_069.txt.gz
Theta_e
304 303 302 303 302 299 297 297 295 295 286 284 284 287 287 287 287 288 288 290 293 294 295 294 294 294 294 294 295 296 296 296 296 296 296 296 296 295
304 303 302 302 302 299 297 295 296 297 295 288 284 285 286 286 286 287 287 288 290 292 293 293 293 293 292 294 294 295 295 295 295 294 294 294 294 294
303 301 300 301 300 298 296 295 293 294 293 290 283 284 284 284 284 286 287 286 285 289 291 292 292 291 291 293 293 293 293 293 293 293 293 292 293 293
301 299 299 299 297 298 295 293 292 292 292 291 281 282 283 284 284 284 284 285 284 286 289 290 290 290 291 291 292 292 292 291 291 291 290 291 291 291
300 298 298 296 295 296 294 293 292 291 289 286 280 282 281 283 281 283 282 282 282 285 288 288 288 289 290 291 291 291 289 289 289 288 288 288 289 289
298 297 296 296 295 294 290 290 288 286 285 285 281 280 281 281 282 280 279 280 279 281 283 284 286 287 287 289 289 288 287 286 287 287 287 287 287 287
291 291 292 291 291 293 289 287 286 285 284 284 281 279 279 278 278 279 279 279 279 281 281 281 281 281 282 284 284 284 285 286 286 286 286 285 284 284
289 288 288 286 288 291 292 291 288 286 284 284 281 280 279 279 280 279 279 278 277 281 279 279 281 280 280 281 284 285 285 285 285 284 283 282 281 280
287 287 285 285 285 286 290 290 289 290 289 284 281 280 279 281 280 280 280 280 279 279 279 277 279 278 281 281 284 284 284 282 281 280 279 279 278 278
285 285 285 284 284 284 285 284 284 285 284 284 283 283 283 283 283 283 281 281 279 279 279 275 277 277 279 278 281 281 279 278 277 277 277 277 277 277
284 284 284 283 285 287 284 282 282 283 286 287 287 287 288 287 285 282 279 278 276 276 279 277 275 274 274 273 275 278 276 275 275 274 274 275 275 276
282 282 283 283 286 287 283 282 281 282 283 283 284 286 286 285 286 283 280 278 276 274 276 275 272 271 268 270 271 269 269 272 272 272 272 273 274 272
281 281 282 286 287 287 285 283 283 283 285 282 282 282 282 282 283 283 281 280 275 273 276 274 269 268 267 267 269 268 267 267 267 267 269 270 272 272
280 281 282 286 287 287 284 286 287 284 282 281 279 279 279 279 278 278 279 279 278 277 277 274 270 269 265 262 263 266 266 266 266 265 266 268 270 271
282 283 285 286 287 287 287 287 283 281 280 278 278 277 276 276 277 275 274 274 273 274 273 272 270 269 267 263 260 262 264 264 265 265 265 266 265 266
283 283 285 286 287 285 284 285 284 282 281 280 279 277 277 275 274 273 270 270 268 267 270 271 269 268 262 262 261 257 262 259 263 263 265 264 265 266
282 282 282 281 281 281 281 281 281 281 280 278 276 273 272 271 271 270 269 268 266 265 264 265 266 265 263 262 255 260 260 260 263 263 262 261 263 264
282 280 280 280 278 277 277 277 276 273 271 271 270 270 269 270 269 268 267 264 264 264 264 263 261 258 257 257 264 257 259 260 262 262 262 259 260 264
280 279 277 277 276 274 273 271 268 267 267 269 268 267 268 267 265 265 265 265 263 263 262 261 259 255 248 249 257 266 258 259 260 259 260 260 260 262
275 274 272 271 268 267 263 263 263 263 263 263 263 261 260 261 262 263 263 260 261 259 257 256 256 254 252 252 250 258 265 260 258 258 260 262 263 267
265 263 261 260 259 259 258 258 258 258 257 256 256 256 258 259 259 260 262 261 257 253 253 255 259 262 258 254 251 252 257 264 264 261 260 259 258 260
261 261 257 255 253 254 254 253 255 254 253 253 253 255 256 257 258 255 254 254 252 255 256 258 257 254 253 255 251 252 256 258 261 263 265 265 259 256
257 257 255 253 248 248 249 250 250 250 248 249 247 246 246 248 246 251 249 250 252 252 252 253 255 255 254 254 251 252 252 253 256 256 258 265 267 268

GFSNE_sfc_thetae_072.txt.gz
Theta_e
305 305 304 305 303 302 301 299 299 295 298 289 287 288 289 290 290 291 291 294 298 299 298 297 298 297 296 296 295 295 296 297 297 297 297 297 297 297
305 304 304 304 304 303 301 299 298 297 295 294 287 287 288 288 289 289 289 291 295 296 296 296 296 296 295 294 295 294 296 296 297 296 296 296 296 296
306 303 302 303 303 302 300 299 297 296 294 298 288 286 286 286 286 287 288 288 289 294 294 294 295 294 294 293 293 294 294 295 295 295 295 294 294 294
303 303 301 301 300 301 300 297 296 296 294 293 288 283 283 285 285 284 285 287 286 291 292 293 293 293 293 292 292 292 292 293 293 292 292 292 291 292
302 300 301 298 297 297 297 296 295 294 293 292 291 282 282 283 282 283 283 284 285 288 291 292 291 292 291 291 291 291 291 290 290 289 289 289 289 290
300 300 298 297 296 295 294 294 293 291 289 288 282 281 281 282 282 281 280 281 281 284 286 287 289 289 290 290 290 289 288 288 288 287 287 288 287 287
294 293 293 293 292 294 292 291 289 288 286 286 284 280 279 279 279 280 280 279 280 281 281 282 283 283 284 287 287 285 286 286 287 287 286 285 284 283
291 290 289 287 289 292 294 294 290 288 286 285 285 282 280 280 280 280 279 278 276 281 280 280 281 280 282 282 284 287 287 286 285 283 282 281 281 280
288 287 287 286 286 287 289 292 292 292 290 286 283 282 280 281 281 279 280 280 279 280 281 278 281 280 282 283 286 286 285 282 280 279 279 279 278 278
286 286 286 285 285 285 285 285 285 285 286 285 284 283 283 283 283 282 281 280 279 280 280 277 278 278 280 280 282 282 281 279 277 277 277 277 277 277
284 284 284 284 285 287 284 283 283 283 286 287 287 287 287 286 285 282 280 279 277 277 279 278 275 275 275 274 275 281 277 276 275 275 275 275 275 275
282 282 283 284 285 287 283 283 281 282 283 284 284 286 287 286 287 284 281 279 277 275 278 276 273 273 269 270 271 270 269 272 272 273 273 273 273 271
281 281 282 286 286 287 285 283 282 284 285 283 282 282 282 283 282 282 282 280 277 274 277 274 271 270 269 268 269 269 268 267 267 267 269 271 272 272
281 281 282 286 287 287 284 287 287 284 282 281 280 279 279 279 280 279 280 278 278 278 278 275 270 269 266 264 265 267 267 266 266 265 266 268 270 270
282 283 284 286 287 286 287 287 283 282 280 279 278 277 277 278 277 275 274 273 273 273 273 273 271 270 268 266 262 262 264 264 265 265 265 265 265 265
284 283 285 286 286 285 284 284 282 281 280 280 279 278 277 275 273 273 271 270 267 267 270 271 270 269 263 262 261 257 262 260 263 263 264 264 264 265
282 283 282 281 281 280 280 280 280 279 279 277 276 274 273 273 271 271 269 266 264 264 264 266 266 265 264 263 255 259 260 260 262 263 262 261 263 264
279 279 279 279 278 278 278 275 273 273 272 272 271 271 270 269 268 267 266 263 264 265 264 264 263 262 260 259 264 257 258 259 261 262 262 258 259 263
277 276 275 275 274 273 272 270 269 269 268 269 268 268 268 266 262 262 264 265 262 263 262 262 261 257 249 251 257 266 258 259 260 258 260 259 259 262
273 271 270 269 268 267 267 266 266 265 265 265 264 262 262 260 260 262 262 259 259 259 258 258 257 256 254 253 250 258 266 260 257 258 260 261 262 266
266 264 263 263 262 261 262 262 261 261 260 257 256 255 254 255 255 257 259 258 256 253 252 255 259 262 257 253 250 252 258 264 264 261 261 258 258 259
262 261 260 259 259 259 258 257 257 256 255 254 252 252 252 254 253 251 251 250 249 251 253 256 256 253 252 254 251 252 256 258 261 263 265 264 256 255
258 258 255 254 252 254 254 254 254 252 250 250 248 246 245 248 246 250 247 247 247 249 250 251 253 254 253 254 250 251 251 253 255 255 257 265 266 267

GFSNE_sfc_thetae_075.txt.gz
Theta_e
309 309 308 309 305 306 304 304 301 298 299 302 292 291 291 294 293 293 294 295 299 303 305 307 306 304 302 300 299 299 299 298 297 299 298 299 299 299
309 308 307 307 307 305 304 303 301 300 297 301 296 293 290 290 290 291 291 293 295 298 302 304 303 300 299 299 298 298 297 296 298 298 299 298 298 298
308 306 305 306 305 305 303 302 301 299 296 300 296 291 288 288 288 289 290 290 290 294 297 301 299 297 298 298 297 296 294 296 297 296 297 296 296 295
305 305 304 303 302 304 303 301 299 299 297 295 298 286 286 286 287 286 287 288 288 290 294 297 296 296 296 296 295 293 293 294 294 294 293 293 292 293
303 302 302 302 299 300 300 299 298 298 297 295 295 284 284 284 283 284 284 285 286 288 292 294 294 294 294 294 293 292 292 292 291 290 289 289 290 291
301 301 301 298 299 298 296 296 295 294 293 292 292 284 282 283 283 282 281 283 283 285 288 289 291 292 293 293 291 291 289 289 288 288 288 288 288 286
296 296 297 296 293 296 294 294 292 291 291 289 289 282 281 280 280 282 281 281 282 284 285 285 286 286 288 289 287 287 288 288 288 288 287 284 283 282
291 292 291 288 290 292 294 295 293 290 288 288 288 285 283 281 282 281 280 279 277 282 282 281 285 284 284 285 286 287 288 288 287 284 282 281 280 280
289 289 288 288 287 288 290 292 292 293 294 288 286 284 282 282 282 281 281 281 280 281 282 280 283 282 284 284 287 288 287 285 283 281 279 278 278 278
288 288 287 287 287 285 286 286 286 286 286 286 285 285 285 284 284 283 283 282 281 282 282 279 281 280 282 282 286 285 284 282 280 278 277 277 277 277
286 286 285 285 286 287 285 284 284 284 286 287 287 287 287 287 285 283 281 281 278 279 281 279 277 276 276 276 278 284 281 279 276 275 275 275 275 275
284 283 283 285 286 287 285 284 282 283 284 284 285 286 286 286 286 285 283 281 279 278 280 277 276 275 272 273 274 275 274 275 273 273 273 273 274 273
282 282 283 285 287 287 286 284 284 285 285 284 283 283 283 283 283 283 284 283 280 278 279 277 275 274 274 271 272 272 271 270 269 269 270 270 272 273
281 282 283 286 287 286 285 287 287 284 283 283 282 281 281 281 280 279 279 278 279 279 281 277 275 274 273 270 270 270 269 269 269 267 268 268 269 270
282 283 284 287 287 286 287 287 284 283 282 281 280 279 279 279 277 275 275 274 273 274 274 275 275 273 273 271 269 267 268 268 268 267 267 267 267 267
284 285 286 286 286 284 283 284 283 283 282 281 280 278 278 277 275 275 273 272 270 269 271 272 271 271 269 268 268 266 267 266 266 266 266 266 266 267
284 284 283 282 282 281 280 280 280 281 280 279 278 276 276 275 273 273 272 271 270 268 267 267 268 267 267 267 266 265 265 265 265 265 265 264 265 266
282 281 280 280 279 279 276 275 275 275 275 276 275 275 274 273 272 271 270 270 269 268 266 266 266 266 266 264 266 264 264 263 264 264 264 262 263 265
278 277 276 276 275 274 273 273 271 271 272 272 272 272 271 270 269 269 268 267 266 266 265 265 264 264 262 262 264 266 264 263 263 263 263 263 262 264
274 273 272 271 271 270 270 269 269 268 268 269 268 268 268 267 267 266 266 264 264 263 262 262 263 262 262 262 261 263 266 264 263 262 262 264 264 267
268 267 267 267 266 266 266 266 266 265 265 264 264 264 263 265 262 263 263 261 260 261 261 261 262 262 261 260 259 260 262 264 265 263 263 262 261 261
265 264 263 263 263 264 263 263 262 262 262 262 260 261 261 263 261 260 260 260 259 260 259 260 260 260 260 260 258 257 259 261 262 263 265 265 262 259
263 262 260 259 259 259 260 260 260 260 259 258 258 257 256 257 256 258 257 256 256 256 257 258 259 259 258 258 256 257 256 257 258 259 261 265 266 267

GFSNE_sfc_thetae_078.txt.gz
Theta_e
313 313 312 312 310 308 308 306 303 299 301 306 298 297 299 299 297 300 299 298 299 300 302 304 306 309 311 311 311 310 305 303 301 300 298 299 299 300
312 311 310 310 310 309 306 306 305 303 299 306 307 302 299 294 294 294 294 294 295 297 298 300 301 304 308 309 309 305 302 301 301 299 298 299 300 300
311 309 308 309 308 308 307 304 304 303 298 302 304 301 295 294 293 291 291 291 292 293 295 297 298 300 303 305 301 299 299 300 298 296 297 298 295 295
305 304 304 305 305 305 305 303 302 302 300 298 301 300 291 291 290 288 288 289 289 291 293 294 296 297 300 298 297 297 298 295 295 294 292 292 293 293
302 302 302 301 300 301 301 301 302 301 300 297 297 293 287 285 285 285 285 286 287 288 291 292 294 295 296 296 296 295 292 292 292 291 290 290 290 291
300 300 300 299 298 299 298 298 297 297 296 295 295 295 285 284 284 283 282 284 284 285 287 288 290 292 294 294 293 291 291 291 290 290 289 289 289 287
295 296 297 296 293 295 295 296 294 293 293 292 291 291 283 281 281 282 282 282 282 285 285 286 286 286 288 291 289 289 290 290 289 289 288 288 285 283
291 292 293 289 291 292 293 294 294 291 289 290 291 289 288 283 282 282 281 280 280 285 284 284 287 285 285 286 289 289 289 289 289 289 286 283 281 280
290 290 290 290 289 290 291 291 291 292 293 290 288 288 285 284 284 282 283 283 283 282 284 281 286 284 286 286 288 288 288 288 287 284 282 280 279 278
291 290 289 289 290 288 287 287 287 287 287 287 286 285 285 285 285 285 284 283 283 283 285 280 283 282 284 285 286 287 288 285 283 280 278 277 277 277
289 290 289 287 287 287 286 285 285 285 286 287 286 287 287 287 286 285 283 282 280 280 283 281 280 278 278 279 281 287 284 281 279 277 276 276 276 276
288 288 285 286 286 287 285 285 284 284 284 285 285 286 286 286 286 285 285 283 280 279 282 279 278 278 275 276 276 279 277 276 275 275 274 274 274 274
285 285 286 285 286 287 288 285 285 285 285 285 284 284 284 284 284 284 284 284 283 280 282 280 278 277 277 273 274 274 274 272 272 272 271 271 273 273
283 284 284 285 287 286 285 286 287 285 285 284 284 283 282 280 280 280 279 279 279 280 279 280 277 277 276 274 272 272 272 271 271 270 270 270 271 271
284 284 284 286 286 286 287 287 284 285 284 283 282 281 280 279 278 277 276 275 274 274 275 276 277 276 277 275 272 271 271 270 270 269 269 269 269 269
284 286 285 286 286 285 285 285 285 285 284 283 280 280 280 279 277 277 275 275 273 271 272 273 273 275 272 272 272 270 270 269 268 269 268 268 269 269
285 285 285 284 283 283 282 283 284 284 282 282 281 279 278 277 276 276 275 274 274 272 270 270 270 270 270 270 270 269 269 268 268 267 267 266 268 268
284 283 283 283 282 281 280 279 279 279 279 280 279 278 277 276 274 274 274 274 272 271 270 269 270 270 269 267 268 268 267 266 267 266 266 265 265 268
283 282 281 280 279 279 278 277 275 275 276 277 277 276 275 273 274 273 272 272 270 269 268 268 269 269 268 267 267 267 266 266 266 265 266 265 264 266
281 279 277 277 276 275 275 274 274 273 273 273 272 272 272 273 272 271 271 270 269 268 266 267 267 267 266 265 265 266 266 265 265 264 265 266 267 269
275 274 274 273 273 272 272 272 271 270 270 270 270 269 270 270 269 269 267 265 266 267 266 265 264 263 264 264 263 264 265 265 265 264 264 263 263 263
272 271 270 271 270 270 270 269 268 268 268 268 267 267 267 268 266 266 266 266 265 265 264 263 263 264 264 263 261 261 263 264 264 265 266 266 263 261
270 269 268 267 267 267 267 267 267 266 265 265 265 264 264 263 264 264 263 262 262 262 262 262 262 262 262 261 259 260 260 260 261 261 263 265 266 267

GFSNE_sfc_thetae_084.txt.gz
Theta_e
304 305 307 310 308 309 310 308 304 298 299 302 304 302 303 303 302 304 303 301 304 306 305 305 304 305 305 306 307 307 308 309 310 311 312 315 316 312
302 301 302 304 304 306 305 305 306 303 299 303 304 305 301 299 299 299 300 297 298 300 301 301 301 301 302 302 303 304 305 306 307 309 310 313 306 304
298 298 299 299 300 300 302 302 302 302 299 301 303 304 303 297 297 296 296 295 295 295 297 298 298 298 298 299 299 300 301 303 304 308 306 304 302 300
295 295 297 299 296 297 298 299 298 299 298 295 298 299 299 300 297 294 293 292 290 292 295 296 296 296 296 296 297 301 301 303 303 302 300 299 300 299
294 294 294 294 292 292 293 295 295 296 296 294 294 296 297 293 290 288 287 287 288 290 292 293 292 292 293 294 296 296 297 296 296 296 295 295 295 294
291 292 292 291 290 290 291 290 291 292 292 292 292 293 294 292 285 285 287 285 285 286 287 287 289 289 291 293 295 293 292 292 292 292 292 292 292 293
287 288 289 289 289 291 289 289 289 288 289 289 289 290 290 291 285 286 284 285 283 284 284 284 285 285 288 290 290 291 292 292 291 291 291 291 290 289
285 286 287 285 287 290 290 290 290 287 286 286 287 286 287 288 287 286 286 281 280 283 283 282 284 284 284 285 291 292 291 291 290 291 289 288 287 285
284 285 285 286 286 287 288 290 289 289 290 287 285 286 285 286 287 285 283 282 281 282 281 281 284 282 284 287 291 291 289 290 290 288 286 285 283 282
284 284 285 285 286 286 286 285 285 285 286 286 286 286 286 286 285 284 283 281 282 282 283 278 279 278 280 281 289 290 289 287 286 284 283 282 281 280
284 285 285 285 287 288 285 283 283 284 287 289 288 289 289 288 286 284 281 279 278 279 282 279 278 276 276 276 283 286 285 284 283 282 281 280 279 277
284 285 285 287 287 287 284 283 282 284 284 284 284 284 284 283 283 282 284 279 278 277 281 277 278 277 273 275 275 275 277 280 280 279 279 278 277 272
283 283 285 286 286 286 288 285 283 286 285 281 282 280 279 278 278 278 278 279 278 275 280 279 276 276 273 272 273 273 273 272 272 272 275 276 275 273
283 284 284 285 286 287 286 287 287 285 283 281 279 277 276 275 275 275 275 275 276 275 276 278 275 274 271 270 270 272 271 271 271 270 270 272 273 273
284 284 286 286 287 286 287 286 284 283 279 278 277 276 277 277 277 275 275 274 273 273 274 274 275 274 272 268 268 269 269 269 269 269 269 268 268 269
284 284 284 286 286 285 284 283 282 280 279 278 278 278 278 276 275 275 273 272 270 269 272 272 272 273 270 269 268 265 268 265 268 267 267 268 268 268
284 280 282 281 280 280 278 277 279 279 279 280 278 274 275 275 274 273 274 272 269 267 268 269 269 269 269 268 263 266 265 265 266 266 264 263 266 267
284 277 279 282 280 279 277 277 277 277 278 277 276 275 273 272 273 273 272 269 267 267 266 266 266 265 264 265 269 262 263 263 264 265 264 259 260 265
283 281 281 281 279 278 277 276 274 274 274 275 273 272 273 272 271 270 270 268 266 265 264 264 264 261 258 257 261 270 261 261 262 260 262 261 260 264
283 281 281 279 278 276 275 274 272 271 269 269 270 270 270 270 268 267 267 265 264 260 261 261 261 260 256 257 254 261 268 260 258 258 260 262 264 268
276 278 278 277 275 275 274 272 270 268 265 265 267 267 266 267 265 264 265 264 263 259 257 258 261 263 259 255 254 255 260 267 265 259 260 258 258 260
277 276 275 274 273 272 271 268 267 266 265 265 265 266 264 266 265 263 261 261 258 258 256 258 258 256 255 256 252 254 257 259 263 266 267 265 256 253
275 273 272 271 271 270 269 268 266 264 263 263 263 262 261 262 261 262 259 258 257 256 253 254 255 257 255 255 252 254 253 254 257 257 259 266 267 268

GFSNE_sfc_thetae_087.txt.gz
Theta_e
298 299 299 301 302 304 305 301 300 295 295 297 298 299 300 302 303 304 304 302 305 306 307 307 308 307 307 307 307 308 308 309 309 309 310 311 311 312
296 295 295 297 298 298 299 300 299 297 293 297 298 300 301 301 300 300 301 298 300 303 304 304 303 304 303 304 304 304 305 305 305 306 307 308 309 310
292 292 293 294 295 296 296 296 296 297 293 295 297 298 298 298 299 298 298 299 298 298 299 299 299 299 299 299 299 300 301 302 304 305 305 307 306 305
290 291 291 293 292 293 293 292 293 293 292 290 293 294 293 295 297 294 296 295 294 295 296 297 297 297 296 296 296 297 297 302 303 301 301 301 302 300
289 288 289 289 288 288 289 289 290 290 290 289 289 292 292 293 293 293 290 291 290 291 294 293 292 292 292 293 294 295 297 297 296 296 296 297 297 298
287 287 287 287 286 287 287 288 288 287 287 286 287 287 289 291 288 287 288 289 288 286 288 288 289 289 290 292 293 293 292 292 293 293 294 294 294 294
284 284 285 285 287 288 287 287 286 285 285 285 284 285 286 287 287 289 288 289 285 284 284 284 284 285 286 291 290 291 292 292 292 292 291 291 291 290
283 283 283 283 286 287 288 288 288 285 285 285 284 284 284 285 287 286 285 284 283 283 282 282 284 284 285 287 291 291 291 291 291 290 289 288 287 287
282 282 283 284 285 285 287 288 287 287 288 285 283 283 283 285 285 283 283 284 281 282 281 278 281 279 282 287 290 291 290 289 288 287 286 286 284 284
283 284 284 284 285 285 286 285 285 285 285 285 285 285 285 286 285 284 283 281 282 282 282 276 278 276 279 285 289 289 287 287 286 285 284 283 282 281
282 284 284 284 286 288 285 283 282 283 287 288 288 287 285 286 287 283 280 279 277 279 281 278 277 275 275 275 279 286 285 284 283 282 281 280 279 278
282 284 285 285 287 287 284 283 283 283 282 283 279 280 280 279 281 279 282 278 278 276 280 277 277 277 273 274 274 274 276 281 281 281 280 279 276 272
283 283 284 286 286 287 288 285 284 286 282 277 277 277 277 276 276 276 277 279 277 275 278 279 276 275 272 271 272 272 272 272 271 272 277 278 277 273
283 283 284 286 286 287 286 287 286 285 277 276 276 276 275 275 275 275 275 275 276 274 275 278 275 273 270 269 269 271 270 270 270 269 269 272 273 274
283 284 287 287 286 286 285 286 284 280 274 275 276 277 277 278 277 275 274 274 273 272 273 274 274 273 270 267 268 268 267 268 269 268 268 268 268 268
283 284 285 285 286 285 280 280 278 277 277 278 278 277 277 276 274 275 272 272 270 269 271 272 272 272 268 268 267 265 267 264 266 267 267 267 268 268
281 282 283 275 279 277 275 276 276 276 277 279 277 273 275 274 273 273 273 269 267 266 267 269 269 269 268 267 263 265 264 264 266 266 264 262 265 267
281 280 281 278 279 279 275 277 276 277 278 278 273 274 272 272 273 271 270 268 267 266 265 265 265 264 264 265 268 261 262 262 264 264 263 258 260 264
280 281 281 277 279 279 278 277 275 275 276 276 275 271 272 271 271 269 269 267 265 264 263 264 263 260 256 255 261 269 260 260 261 258 261 260 260 263
279 280 280 279 280 278 277 275 274 273 273 272 270 270 271 270 268 267 267 265 264 261 259 260 261 260 257 258 254 260 268 259 257 257 260 261 263 268
277 278 281 280 278 277 276 274 273 272 270 268 264 266 268 268 264 265 266 265 262 258 257 259 261 263 259 255 254 254 259 268 265 259 259 257 257 259
274 275 277 276 276 275 273 272 270 270 268 266 262 263 265 265 264 262 263 264 260 259 259 260 260 256 254 255 251 253 256 259 262 266 266 264 256 253
269 271 269 272 273 272 271 270 270 269 267 263 262 263 263 261 262 263 260 260 260 258 258 256 257 257 254 254 252 253 252 253 256 257 258 267 267 268

GFSNE_sfc_thetae_093.txt.gz
Theta_e
288 288 288 290 290 290 290 290 290 283 283 286 286 289 291 292 292 292 292 294 295 297 297 299 300 300 300 302 303 304 305 305 305 304 305 305 306 307
287 286 286 287 288 288 288 289 289 288 283 287 287 289 289 289 290 290 290 291 293 295 296 297 298 298 299 299 300 301 302 302 302 302 304 305 306 307
285 285 284 285 285 285 286 286 286 286 284 285 287 288 287 287 288 289 290 290 290 293 294 296 296 296 296 297 297 298 298 299 299 304 304 304 304 303
284 283 283 285 283 284 283 284 285 286 285 282 284 285 285 287 287 287 288 289 290 291 294 293 293 293 293 294 295 295 296 297 297 298 300 300 300 300
283 283 283 282 281 281 283 284 284 285 285 283 282 284 285 286 284 285 285 285 287 290 291 291 290 290 291 293 294 293 293 294 294 294 295 295 296 297
284 283 282 281 282 283 283 283 284 283 283 283 282 282 283 284 284 282 282 284 283 286 286 286 287 288 292 293 291 291 292 292 292 292 292 292 292 292
282 282 282 282 284 285 284 284 284 283 284 282 281 282 281 282 281 283 282 282 283 282 279 280 281 285 286 289 289 290 291 290 290 290 289 289 289 289
281 281 282 281 283 286 286 287 287 284 282 282 281 281 281 282 282 280 280 280 279 282 277 278 281 280 285 286 290 289 289 289 288 288 287 287 286 286
281 282 282 282 282 283 285 286 285 286 287 284 282 282 281 281 280 278 278 279 278 281 280 276 278 276 276 286 288 288 287 287 286 286 285 284 284 284
281 281 281 281 281 284 284 283 283 284 284 285 284 284 283 282 281 280 280 278 279 280 280 274 277 274 276 275 285 286 285 285 284 284 283 283 283 282
281 281 280 280 284 286 283 283 281 284 286 286 284 284 283 282 281 272 273 271 271 275 280 277 277 275 275 274 274 280 284 283 282 281 280 279 279 277
278 280 281 282 284 285 283 283 282 281 283 280 277 275 276 275 278 273 275 268 271 272 279 276 277 277 272 274 272 272 272 277 280 281 280 278 275 271
275 277 279 282 284 285 285 284 283 285 283 279 276 269 270 271 272 273 272 272 270 270 276 278 275 274 271 270 271 271 270 270 270 271 276 279 277 272
273 277 277 282 284 284 284 285 286 284 281 278 275 267 268 269 271 272 273 273 274 273 274 276 274 273 270 268 268 270 269 269 269 268 269 271 274 276
278 280 282 283 283 282 283 285 284 283 280 277 275 271 273 274 274 272 272 273 272 272 272 273 273 272 269 266 267 267 267 267 268 267 267 267 267 267
278 277 280 281 282 282 278 280 279 277 276 275 275 273 276 275 269 270 268 270 267 268 271 272 271 271 266 267 266 263 266 263 266 266 266 266 267 267
279 270 271 278 278 277 275 274 276 275 277 273 273 273 274 274 270 270 271 267 263 265 266 268 269 269 268 266 261 264 264 263 265 265 262 261 264 266
269 265 270 273 273 274 276 277 271 275 276 277 275 275 275 274 270 270 269 263 264 265 265 266 266 265 264 265 268 262 262 262 263 263 262 257 259 263
261 262 267 269 270 273 275 277 277 274 277 277 277 276 276 273 271 268 268 266 264 264 264 264 264 262 258 258 262 269 262 262 261 258 260 259 259 263
257 260 264 266 268 270 272 274 276 275 275 275 276 276 274 272 269 268 267 265 263 262 260 262 263 263 262 261 258 263 267 261 258 257 259 260 263 267
257 259 263 264 265 267 269 271 273 274 273 275 274 274 273 271 268 266 268 266 264 262 260 262 263 264 262 259 258 258 262 268 265 259 259 256 257 259
257 259 261 262 263 264 267 268 269 270 269 270 272 272 272 271 269 265 266 264 262 263 262 262 262 261 260 261 258 258 259 259 262 265 267 265 256 253
258 258 259 260 261 263 264 266 267 268 267 267 270 270 269 268 267 266 264 262 262 262 260 259 260 261 259 259 257 258 255 254 256 257 258 266 267 268